EW8359 Weather Reports


Display with metric or nautical units.
time (UTC)temp
F
wind
direction
speed
MPH
gust
MPH
rain 1hr
in
rain 24hr
in
rain mn
in
humidity
%
barometer
mb
20260508221535 54 307 0.0 9.0 0.00 0.00 0.00 34 1007.1
20260508220034 54 279 0.0 3.0 0.00 0.00 0.00 36 1007.1
20260508214538 54 291 0.0 4.0 0.00 0.00 0.00 36 1007.1
20260508213033 55 294 0.0 8.0 0.00 0.00 0.00 35 1006.9
20260508211527 55 35 0.0 2.0 0.00 0.00 0.00 39 1006.9
20260508210027 55 76 0.0 6.0 0.00 0.00 0.00 37 1006.7
20260508204527 56 12 0.0 11.0 0.00 0.00 0.00 34 1006.5
20260508203026 57 285 2.0 10.0 0.00 0.00 0.00 33 1006.4
20260508201526 56 238 1.0 11.0 0.00 0.00 0.00 33 1006.3
20260508200037 56 346 1.0 9.0 0.00 0.00 0.00 37 1006.1
20260508194525 56 292 1.0 10.0 0.00 0.00 0.00 37 1006.1
20260508193024 55 220 2.0 10.0 0.00 0.00 0.00 39 1006.2
20260508191523 55 300 1.0 10.0 0.00 0.00 0.00 38 1006.1
20260508190022 56 252 1.0 16.0 0.00 0.00 0.00 36 1005.9
20260508184525 56 205 0.0 13.0 0.00 0.00 0.00 36 1005.8
20260508183016 56 192 0.0 14.0 0.00 0.00 0.00 34 1005.8
20260508181515 56 212 1.0 11.0 0.00 0.00 0.00 34 1005.7
20260508180015 58 246 0.0 9.0 0.00 0.00 0.00 37 1005.5
20260508174514 59 194 1.0 18.0 0.00 0.00 0.00 32 1005.5
20260508173017 59 205 1.0 10.0 0.00 0.00 0.00 29 1005.6
20260508171525 58 280 0.0 12.0 0.00 0.00 0.00 31 1005.5
20260508170011 59 78 1.0 8.0 0.00 0.00 0.00 31 1005.3
20260508164510 59 252 0.0 16.0 0.00 0.00 0.00 29 1005.3
20260508163008 58 224 3.0 14.0 0.00 0.00 0.00 33 1005.6
20260508161511 58 206 1.0 16.0 0.00 0.00 0.00 34 1005.8
20260508160005 58 59 0.0 8.0 0.00 0.00 0.00 34 1005.7
20260508154503 58 225 0.0 13.0 0.00 0.00 0.00 37 1005.9
20260508153001 57 274 0.0 10.0 0.00 0.00 0.00 41 1005.8
20260508151559 56 282 0.0 8.0 0.00 0.00 0.00 39 1006.0
20260508150124 56 349 2.0 13.0 0.00 0.00 0.00 36 1006.1
20260508144604 56 319 0.0 14.0 0.00 0.00 0.00 41 1006.2
20260508143055 56 287 0.0 15.0 0.00 0.00 0.00 40 1006.3
20260508141600 56 191 0.0 5.0 0.00 0.00 0.00 41 1006.2
20260508140057 55 346 0.0 9.0 0.00 0.00 0.00 38 1006.3
20260508134547 54 205 0.0 7.0 0.00 0.00 0.00 41 1006.5
20260508133045 54 180 0.0 11.0 0.00 0.00 0.00 45 1006.7
20260508131541 54 193 0.0 8.0 0.00 0.00 0.00 46 1006.7
20260508130039 53 284 0.0 7.0 0.00 0.00 0.00 47 1006.8
20260508124535 52 196 0.0 9.0 0.00 0.00 0.00 49 1006.8
20260508123034 52 197 0.0 6.0 0.00 0.00 0.00 49 1006.8
20260508121530 50 289 0.0 5.0 0.00 0.00 0.00 51 1006.9
20260508120027 49 194 0.0 9.0 0.00 0.00 0.00 53 1006.8
20260508114532 48 269 0.0 7.0 0.00 0.00 0.00 54 1006.7
20260508113027 47 257 0.0 6.0 0.00 0.00 0.00 56 1006.8
20260508111515 45 205 0.0 9.0 0.00 0.00 0.00 58 1006.7
20260508110012 44 258 0.0 0.0 0.00 0.00 0.00 62 1006.6
20260508104510 42 268 0.0 3.0 0.00 0.00 0.00 67 1006.5
20260508103009 41 269 0.0 3.0 0.00 0.00 0.00 72 1006.5
20260508101508 40 207 0.0 4.0 0.00 0.00 0.00 74 1006.4
20260508100008 39 223 0.0 6.0 0.00 0.00 0.00 74 1006.2
20260508094505 39 221 0.0 4.0 0.00 0.00 0.00 76 1006.0
20260508093007 38 267 0.0 1.0 0.00 0.00 0.00 77 1005.9
20260508091505 38 247 0.0 0.0 0.00 0.00 0.00 76 1005.8
20260508090003 36 228 0.0 3.0 0.00 0.00 0.00 79 1005.6
20260508084502 36 241 0.0 0.0 0.00 0.00 0.00 79 1005.4
20260508083100 36 241 0.0 0.0 0.00 0.00 0.00 78 1005.1
20260508081608 36 276 0.0 0.0 0.00 0.00 0.00 79 1005.2
20260508080059 36 297 0.0 0.0 0.00 0.00 0.00 80 1005.1
20260508074600 37 308 0.0 0.0 0.00 0.00 0.00 79 1005.0
20260508073103 37 308 0.0 0.0 0.00 0.00 0.00 77 1005.0
20260508071552 37 308 0.0 0.0 0.00 0.00 0.00 78 1005.0
20260508070051 37 308 0.0 0.0 0.00 0.00 0.00 77 1005.0
20260508064602 37 308 0.0 0.0 0.00 0.00 0.00 77 1005.0
20260508063045 37 308 0.0 0.0 0.00 0.00 0.00 77 1005.1
20260508061550 38 308 0.0 0.0 0.00 0.00 0.00 75 1005.4
20260508060042 38 308 0.0 0.0 0.00 0.00 0.00 74 1005.5
20260508054602 39 308 0.0 0.0 0.00 0.00 0.00 75 1005.6
20260508053035 39 308 0.0 0.0 0.00 0.00 0.00 74 1005.6
20260508051533 39 308 0.0 0.0 0.00 0.00 0.00 75 1005.7
20260508050035 40 308 0.0 0.0 0.00 0.00 0.00 71 1006.0
20260508044526 41 308 0.0 0.0 0.00 0.00 0.00 70 1005.9
20260508043030 42 308 0.0 0.0 0.00 0.00 0.00 66 1005.9
20260508041517 43 308 0.0 0.0 0.00 0.00 0.00 64 1005.9
20260508040015 44 254 0.0 0.0 0.00 0.00 0.00 62 1005.8
20260508034521 45 254 0.0 0.0 0.00 0.05 0.00 59 1005.9
20260508033011 46 255 0.0 0.0 0.00 0.05 0.00 56 1005.9
20260508031508 47 281 0.0 0.0 0.00 0.05 0.00 54 1005.8
20260508030007 46 283 0.0 0.0 0.00 0.05 0.00 53 1005.8
20260508024510 47 262 0.0 0.0 0.00 0.06 0.00 54 1005.9
20260508023004 47 257 0.0 3.0 0.00 0.06 0.00 52 1005.7
20260508021502 48 285 0.0 1.0 0.00 0.06 0.00 51 1005.5
20260508014559 49 323 0.0 3.0 0.00 0.06 0.00 50 1005.2
20260508013058 48 297 0.0 6.0 0.00 0.06 0.00 52 1005.0
20260508011606 47 264 0.0 3.0 0.00 0.06 0.00 55 1004.9
20260508010100 47 343 0.0 3.0 0.00 0.06 0.00 61 1004.7
20260508004557 47 243 0.0 0.0 0.00 0.07 0.00 60 1004.3
20260508003056 48 243 0.0 0.0 0.00 0.07 0.00 60 1004.0
20260508001556 49 244 0.0 0.0 0.00 0.07 0.00 59 1003.8
20260508000120 51 244 0.0 0.0 0.00 0.07 0.00 54 1003.6
20260507234554 53 244 0.0 0.0 0.00 0.07 0.00 51 1003.4
20260507233051 55 302 0.0 1.0 0.00 0.07 0.00 43 1003.4
20260507231558 55 87 0.0 4.0 0.00 0.07 0.00 40 1003.3
20260507230050 56 178 0.0 0.0 0.00 0.07 0.00 37 1003.1
20260507224552 57 217 0.0 2.0 0.00 0.07 0.00 34 1002.9
20260507223049 57 198 0.0 5.0 0.00 0.07 0.00 33 1002.7